Back to catalog

STARLINK-37300

AliveCommunicationsSSO
NORAD 68682·PAYLOAD·🇺🇸 United States

Launched Apr 11, 2026 from Vandenberg Space Force Base

Loading…

Next Passes (next 24 hours)

TLE

FreshSource: CelesTrak SupGP

Epoch: Sep 14, 2026, 14:55 UTC

1 68682C 26077W   26257.62201389  .00001795  00000+0  55700-4 0  2574
2 68682  97.2844 127.6784 0002096  88.3683  37.8776 15.33439156    13

Track STARLINK-37300 in real time with AllMySat

Download on the App Store